Regional Weather Roundup
Issued by NWS Cleveland, OH

Home | Current Version | Previous Version | Text Only | Print | Product List | Glossary Off
Versions: 1 2 3 4 5 6 7 8 9 10 11 12 13 14 15 16 17 18 19 20 21 22 23 24 25 26 27 28 29 30 31 32 33 34 35 36 37 38 39 40 41 42 43 44 45 46 47 48 49 50

000
ASUS41 KCLE 270410
RWRCLE
OHIO REGIONAL WEATHER ROUNDUP
NATIONAL WEATHER SERVICE WILMINGTON, OH
1200 AM EDT THU JUL 27 2017

NOTE: "FAIR" INDICATES FEW OR NO CLOUDS BELOW 12,000 FEET WITH NO
SIGNIFICANT WEATHER AND/OR OBSTRUCTIONS TO VISIBILITY.

OHZ001>008-015>018-024>027-034-035-043-044-270500-
   NORTHWEST OHIO

CITY           SKY/WX    TMP DP  RH WIND       PRES   REMARKS
DEFIANCE       FAIR      71  63  75 CALM      30.02F
FINDLAY        FAIR      70  64  81 S6        30.03F
TOLEDO EXPRESS FAIR      69  67  93 S5        30.02F
TOLEDO EXEC    FAIR      72  67  84 S6        30.02F
LIMA           FAIR      67  65  93 SE3       30.04F
$$

OHZ009>014-019>023-028>033-038-089-270500-
   NORTHEAST OHIO

CITY           SKY/WX    TMP DP  RH WIND       PRES   REMARKS
CLE-HOPKINS    CLOUDY    73  64  73 SE7       30.04F
CLE-LAKEFRONT  FAIR      72  62  71 SE8       30.02F
CUY CO. ARPT   NOT AVBL
LORAIN-ELYRIA    N/A    N/A N/A N/A MISG      30.05F
ASHTABULA      FAIR      63  63 100 CALM      30.06F
AKRON-CANTON   MOCLDY    70  61  73 CALM      30.07S
WOOSTER        FAIR      64  63  96 SE3       30.06F
MANSFIELD      FAIR      68  64  87 S5        30.07S
YOUNGSTOWN     CLOUDY    65  63  93 E5        30.06F
$$

OHZ042-051>053-060>062-070>072-077>081-270500-
  SOUTHWEST OHIO

CITY           SKY/WX    TMP DP  RH WIND       PRES   REMARKS
CINC-COVINGTON FAIR      78  70  76 SE9       30.03F
CINC-LUNKEN    MOCLDY    73  72  96 NE5       30.03S
HAMILTON       FAIR      72  69  90 E3        30.03F
DAYTON         MOCLDY    72  64  76 S5        30.05F
WRIGHT-PAT AFB CLOUDY    72  65  77 CALM      30.04F
DAYTON GENERAL FAIR      73  65  75 SE5       30.04F
WILMINGTON     FAIR      69  66  90 SE3       30.05S
$$

OHZ036-037-039>041-045>050-054>059-063>069-073>076-082>088-270500-
  CENTRAL AND SOUTHEAST OHIO

CITY           SKY/WX    TMP DP  RH WIND       PRES   REMARKS
COLUMBUS       CLOUDY    71  64  78 CALM      30.04S
OSU AIRPORT    FAIR      69  64  84 S3        30.05F
BOLTON FIELD   FAIR      65  64  95 CALM      30.06S
RICKENBACK AFB FAIR      68  63  84 CALM      30.05S
NEWARK         FAIR      66  64  93 CALM      30.05F
MARION         FAIR      68  63  84 SW3       30.06S
LANCASTER      FAIR      64  63  96 CALM      30.06F
ZANESVILLE     FAIR      68  65  90 CALM      30.06S
NEW PHILLY     FAIR      65  65 100 CALM      30.07F
$$




USA.gov is the U.S. government's official web portal to all federal, state and local government web resources and services.